This is the latest recevied weather packets stored in our database for station/object VE9LJW. If no packets are shown the sender has not sent any weather packets the latest 10 day(s).
| Time | Temp. | Humidity | Pressure | Rain* | Wind** | Luminosity | Snow |
|---|---|---|---|---|---|---|---|
| 1777754175 | 15° C | 60% | 1010.4 hPa | 0 mm | - | 40 W/m² | - |
| 1777753873 | 15° C | 57% | 1010.5 hPa | 0 mm | - | 64 W/m² | - |
| 1777753568 | 15° C | 57% | 1010.3 hPa | 0 mm | - | 81 W/m² | - |
| 1777753266 | 15° C | 57% | 1010.3 hPa | 0 mm | - | 108 W/m² | - |
| 1777752962 | 14.44° C | 58% | 1010.2 hPa | 0 mm | - | 104 W/m² | - |
| 1777752659 | 15° C | 57% | 1010.3 hPa | 0 mm | - | 95 W/m² | - |
| 1777752354 | 15° C | 59% | 1010.3 hPa | 0 mm | - | 105 W/m² | - |
| 1777752052 | 14.44° C | 57% | 1010.4 hPa | 0 mm | - | 164 W/m² | - |
| 1777751750 | 14.44° C | 55% | 1010.3 hPa | 0 mm | - | 201 W/m² | - |
| 1777751446 | 14.44° C | 58% | 1010.4 hPa | 0 mm | - | 274 W/m² | - |
| 1777751142 | 14.44° C | 58% | 1010.4 hPa | 0 mm | - | 232 W/m² | - |
| 1777750838 | 14.44° C | 58% | 1010.3 hPa | 0 mm | - | 166 W/m² | - |
| 1777750536 | 14.44° C | 57% | 1010.4 hPa | 0 mm | - | 120 W/m² | - |
| 1777750233 | 14.44° C | 59% | 1010.2 hPa | 0 mm | - | 142 W/m² | - |
| 1777749928 | 15° C | 56% | 1010.2 hPa | 0 mm | - | 125 W/m² | - |
| 1777749626 | 15° C | 55% | 1010.2 hPa | 0 mm | - | 133 W/m² | - |
| 1777749323 | 15° C | 56% | 1010.4 hPa | 0 mm | - | 165 W/m² | - |
| 1777749021 | 15° C | 59% | 1010.2 hPa | 0 mm | - | 208 W/m² | - |
| 1777748718 | 15° C | 55% | 1010.3 hPa | 0 mm | - | 175 W/m² | - |
| 1777748415 | 15° C | 55% | 1010.3 hPa | 0 mm | - | 182 W/m² | - |
| 1777748110 | 15° C | 60% | 1010.3 hPa | 0 mm | - | 180 W/m² | - |
| 1777747807 | 15° C | 54% | 1010.3 hPa | 0 mm | - | 198 W/m² | - |
| 1777747502 | 15° C | 59% | 1010 hPa | 0 mm | - | 275 W/m² | - |
| 1777747199 | 15° C | 59% | 1010.4 hPa | 0 mm | - | 268 W/m² | - |
| 1777746895 | 14.44° C | 59% | 1010.4 hPa | 0 mm | - | 263 W/m² | - |
* Rain latest hour (hover to see other rain measurements)
** Current wind speed in m/s (hover to see current wind gust speed)